This is the latest recevied weather packets stored in our database for station/object KO6LQJ. If no packets are shown the sender has not sent any weather packets the latest 10 day(s).
| Time | Temp. | Humidity | Pressure | Rain* | Wind** | Luminosity | Snow |
|---|---|---|---|---|---|---|---|
| 1777512825 | 21.67° C | 41% | 1015.9 hPa | 0 mm | - | 50 W/m² | - |
| 1777512523 | 22.22° C | 41% | 1015.7 hPa | 0 mm | - | 62 W/m² | - |
| 1777512219 | 22.22° C | 40% | 1016.1 hPa | 0 mm | - | 72 W/m² | - |
| 1777511917 | 22.22° C | 40% | 1015.6 hPa | 0 mm | - | 95 W/m² | - |
| 1777511614 | 22.22° C | 41% | 1015.6 hPa | 0 mm | - | 57 W/m² | - |
| 1777511312 | 21.67° C | 40% | 1015.6 hPa | 0 mm | - | 106 W/m² | - |
| 1777511007 | 22.78° C | 40% | 1015.8 hPa | 0 mm | - | 37 W/m² | - |
| 1777510704 | 22.22° C | 41% | 1015.7 hPa | 0 mm | - | 40 W/m² | - |
| 1777510400 | 22.78° C | 40% | 1015.9 hPa | 0 mm | - | 42 W/m² | - |
| 1777510096 | 22.78° C | 40% | 1016.1 hPa | 0 mm | - | 56 W/m² | - |
| 1777509794 | 22.78° C | 40% | 1016.2 hPa | 0 mm | - | 40 W/m² | - |
| 1777509489 | 22.22° C | 40% | 1016.2 hPa | 0 mm | - | 83 W/m² | - |
| 1777509187 | 22.78° C | 38% | 1016.2 hPa | 0 mm | - | 125 W/m² | - |
| 1777508884 | 23.33° C | 39% | 1016.1 hPa | 0 mm | - | 245 W/m² | - |
| 1777508580 | 23.33° C | 38% | 1015.9 hPa | 0 mm | - | 78 W/m² | - |
| 1777508277 | 23.33° C | 39% | 1015.9 hPa | 0 mm | - | 284 W/m² | - |
| 1777507975 | 23.33° C | 37% | 1016 hPa | 0 mm | - | 304 W/m² | - |
| 1777507671 | 23.33° C | 38% | 1015.8 hPa | 0 mm | - | 325 W/m² | - |
| 1777507368 | 23.33° C | 38% | 1015.8 hPa | 0 mm | - | 87 W/m² | - |
| 1777507066 | 23.89° C | 37% | 1015.9 hPa | 0 mm | - | 182 W/m² | - |
| 1777506763 | 23.89° C | 37% | 1015.7 hPa | 0 mm | - | 49 W/m² | - |
| 1777506459 | 23.89° C | 36% | 1015.9 hPa | 0 mm | - | 55 W/m² | - |
| 1777506155 | 23.89° C | 37% | 1015.8 hPa | 0 mm | - | 50 W/m² | - |
| 1777505851 | 24.44° C | 37% | 1015.5 hPa | 0 mm | - | 51 W/m² | - |
| 1777505548 | 23.89° C | 37% | 1015.6 hPa | 0 mm | - | 51 W/m² | - |
* Rain latest hour (hover to see other rain measurements)
** Current wind speed in m/s (hover to see current wind gust speed)